Weather History for MMUN - February, 2013

Change the Weather History Date:

Sunday, February 17, 2013

  Actual Average Record
Temperature  
Mean Temperature 65 °F -  
Max Temperature 75 °F 82 °F 87 °F (1998)
Min Temperature 55 °F 65 °F 53 °F (2011)
Growing Degree Days 15 (Base 50)    
Moisture  
Dew Point 53 °F    
Average Humidity 63    
Maximum Humidity 88    
Minimum Humidity 44    
Precipitation  
Precipitation 0.00 in - - ()
Sea Level Pressure  
Sea Level Pressure 30.18 in    
Wind  
Wind Speed 6 mph ()    
Max Wind Speed 9 mph    
Max Gust Speed -    
Visibility 7.0 miles    
Events      
Averages and records for this station are not official NWS values.
T = Trace of Precipitation, MM = Missing Value Source: Averaged Metar Reports

Daily Weather History Graph

Daily Weather History Graph

Search for Another Location

Airport or City:

Trip Planner

Search our weather history database for the weather conditions in past years. The results will help you decide how hot, cold, wet, or windy it might be!

Date:

Astronomy

Feb. 17, 2013 Rise Set
Actual Time 6:16 AM CST 5:46 PM CST
Civil Twilight 5:53 AM CST 6:09 PM CST
Nautical Twilight 5:27 AM CST 6:35 PM CST
Astronomical Twilight 5:01 AM CST 7:01 PM CST
Moon 11:08 AM CST (2/17) No Moon Set
Length of Visible Light 12h 15m
Length of Day
11h 30m
Waxing Crescent, 49% of the Moon is Illuminated
Feb 17
Waxing Crescent
Feb 17
First Quarter
Feb 25
Full
Mar 4
Last Quarter
Mar 11
New

Hourly Weather History & Observations

Time (CST) Temp. Dew Point Humidity Pressure Visibility Wind Dir Wind Speed Gust Speed Precip Events Conditions
12:45 AM 60.8 °F 53.6 °F 77% 30.16 in 7.0 mi NW 5.8 mph - N/A   Clear
1:44 AM 59.0 °F 53.6 °F 82% 30.15 in 7.0 mi NW 5.8 mph - N/A   Clear
2:46 AM 59.0 °F 53.6 °F 82% 30.13 in 7.0 mi NW 9.2 mph - N/A   Partly Cloudy
3:45 AM 59.0 °F 51.8 °F 77% 30.15 in 7.0 mi WNW 5.8 mph - N/A   Scattered Clouds
4:44 AM 57.2 °F 51.8 °F 82% 30.16 in 7.0 mi NW 5.8 mph - N/A   Scattered Clouds
5:43 AM 55.4 °F 51.8 °F 88% 30.15 in 7.0 mi NW 5.8 mph - N/A   Scattered Clouds
6:42 AM 55.4 °F 51.8 °F 88% 30.19 in 7.0 mi WNW 5.8 mph - N/A   Scattered Clouds
7:43 AM 64.4 °F 55.4 °F 73% 30.21 in 7.0 mi NW 5.8 mph - N/A   Scattered Clouds
8:43 AM 71.6 °F 53.6 °F 53% 30.21 in 7.0 mi North 8.1 mph - N/A   Scattered Clouds
9:44 AM 73.4 °F 51.8 °F 47% 30.23 in 7.0 mi North 6.9 mph - N/A   Scattered Clouds
10:46 AM 75.2 °F 51.8 °F 44% 30.23 in 7.0 mi NNE 8.1 mph - N/A   Mostly Cloudy
11:44 AM 73.4 °F 51.8 °F 47% 30.21 in 7.0 mi NNE 8.1 mph - N/A   Mostly Cloudy
12:45 PM 75.2 °F 51.8 °F 44% 30.20 in 7.0 mi NE 8.1 mph - N/A   Mostly Cloudy
1:44 PM 73.4 °F 53.6 °F 50% 30.18 in 7.0 mi NE 9.2 mph - N/A   Mostly Cloudy
2:45 PM 75.2 °F 51.8 °F 44% 30.17 in 7.0 mi NNE 5.8 mph - N/A   Scattered Clouds
3:43 PM 73.4 °F 53.6 °F 50% 30.17 in 7.0 mi NNE 9.2 mph - N/A   Scattered Clouds
4:46 PM 71.6 °F 57.2 °F 60% 30.17 in 7.0 mi NE 8.1 mph - N/A   Mostly Cloudy
5:41 PM 69.8 °F 55.4 °F 60% 30.18 in 7.0 mi NE 6.9 mph - N/A   Mostly Cloudy
6:55 PM 69.8 °F 55.4 °F 60% 30.18 in 7.0 mi NE 4.6 mph - N/A   Mostly Cloudy
7:40 PM 69.8 °F 53.6 °F 56% 30.18 in 7.0 mi ENE 5.8 mph - N/A   Mostly Cloudy
8:40 PM 68.0 °F 51.8 °F 56% 30.19 in 7.0 mi NE 2.3 mph - N/A   Mostly Cloudy
9:47 PM 69.8 °F 53.6 °F 56% 30.20 in 7.0 mi NE 5.8 mph - N/A   Mostly Cloudy
10:46 PM 66.2 °F 51.8 °F 60% 30.20 in 7.0 mi NE 3.5 mph - N/A   Partly Cloudy
11:46 PM 66.2 °F 53.6 °F 64% 30.18 in 7.0 mi ENE 3.5 mph - N/A   Scattered Clouds